sat.trackr.live / text

‹ back to catalog

STARLINK-2185

NORAD 47767 · 2021-017AX

PAYLOAD ACTIVE UNKNOWN

§ Identity

Operator
Country
US
Launch date
2021-03-04
Launch site
AFETR
Launch vehicle
Mass (kg)
RCS (m²)

Purposes: comms

External: N2YO · Heavens-Above · Gunter

§ Orbital elements

Epoch: 2026-09-13T04:00:01.998720Z

Period
90.23 min
Inclination
53.1436°
Eccentricity
0.0009288
Mean motion
15.96005765 rev/d
Perigee alt
279.3 km
Apogee alt
291.7 km
Semi-major
6,663.7 km
B*
9.2165e-4
RAAN
12.4694°
Arg perigee
325.0339°
Mean anomaly
113.9517°
Rev number
601

§ Raw data

STARLINK-21851 47767U 21017AX  26256.16668980  .00385907  71010-4  92165-3 0  99982 47767  53.1436  12.4694 0009288 325.0339 113.9517 15.96005765  6011

JSON: /api/v1/satellites/47767 · /tle

For live sub-satellite position, see the globe view (requires WebGL).

§ Visibility from observer

Set your observer location to see the next 7 days of passes ≥ 10°. The values pass through the URL so the page stays shareable.

No JS? Fill the form by hand. The geolocation button needs JavaScript.